TimePDT,TemperatureF,Dew PointF,Humidity,Sea Level PressureIn,VisibilityMPH,Wind Direction,Wind SpeedMPH,Gust SpeedMPH,PrecipitationIn,Events,Conditions,WindDirDegrees,DateUTC
12:15 AM,44.6,37.4,76,30.45,10.0,Calm,Calm,-,N/A,,Overcast,0,2013-04-18 07:15:00
12:35 AM,44.6,37.4,76,30.46,10.0,Calm,Calm,-,N/A,,Overcast,0,2013-04-18 07:35:00
12:55 AM,44.6,37.4,76,30.46,10.0,Calm,Calm,-,N/A,,Overcast,0,2013-04-18 07:55:00
1:15 AM,44.6,39.2,81,30.46,10.0,Calm,Calm,-,N/A,,Overcast,0,2013-04-18 08:15:00
1:35 AM,44.6,39.2,81,30.47,10.0,Calm,Calm,-,N/A,,Overcast,0,2013-04-18 08:35:00
1:55 AM,44.6,39.2,81,30.46,10.0,Calm,Calm,-,N/A,,Overcast,0,2013-04-18 08:55:00
2:15 AM,44.6,39.2,81,30.46,10.0,Calm,Calm,-,N/A,,Overcast,0,2013-04-18 09:15:00
2:35 AM,44.6,39.2,81,30.46,10.0,Calm,Calm,-,N/A,,Overcast,0,2013-04-18 09:35:00
2:55 AM,44.6,41.0,87,30.46,10.0,Calm,Calm,-,N/A,,Overcast,0,2013-04-18 09:55:00
3:15 AM,44.6,39.2,81,30.46,10.0,Calm,Calm,-,N/A,,Overcast,0,2013-04-18 10:15:00
3:35 AM,44.6,39.2,81,30.46,10.0,Calm,Calm,-,N/A,,Overcast,0,2013-04-18 10:35:00
3:55 AM,44.6,39.2,81,30.46,10.0,Calm,Calm,-,N/A,,Overcast,0,2013-04-18 10:55:00
4:15 AM,44.6,39.2,81,30.47,10.0,Calm,Calm,-,N/A,,Overcast,0,2013-04-18 11:15:00
4:35 AM,44.6,41.0,87,30.46,10.0,ESE,3.5,-,N/A,,Overcast,110,2013-04-18 11:35:00
4:55 AM,44.6,39.2,81,30.47,5.0,SSE,4.6,-,N/A,,Overcast,160,2013-04-18 11:55:00
5:15 AM,44.6,39.2,81,30.46,4.0,SSE,4.6,-,N/A,,Overcast,160,2013-04-18 12:15:00
5:35 AM,44.6,39.2,81,30.46,6.0,SSE,5.8,-,N/A,,Overcast,150,2013-04-18 12:35:00
5:55 AM,44.6,39.2,81,30.47,10.0,SSE,3.5,-,N/A,,Overcast,150,2013-04-18 12:55:00
6:15 AM,42.8,39.2,87,30.46,10.0,SE,3.5,-,N/A,,Overcast,140,2013-04-18 13:15:00
6:35 AM,42.8,39.2,87,30.46,10.0,SE,6.9,-,N/A,,Overcast,140,2013-04-18 13:35:00
6:55 AM,44.6,39.2,81,30.46,10.0,SE,5.8,-,N/A,,Overcast,130,2013-04-18 13:55:00
7:15 AM,44.6,39.2,81,30.47,10.0,SE,4.6,-,N/A,,Overcast,130,2013-04-18 14:15:00
7:35 AM,44.6,39.2,81,30.47,10.0,SE,3.5,-,N/A,,Overcast,140,2013-04-18 14:35:00
7:55 AM,44.6,39.2,81,30.47,10.0,SE,6.9,-,N/A,,Overcast,140,2013-04-18 14:55:00
8:15 AM,44.6,39.2,81,30.47,10.0,SE,5.8,-,N/A,,Overcast,140,2013-04-18 15:15:00
8:35 AM,44.6,39.2,81,30.47,10.0,SSE,6.9,-,N/A,,Overcast,160,2013-04-18 15:35:00
8:55 AM,44.6,39.2,81,30.48,10.0,SSE,9.2,-,N/A,,Overcast,150,2013-04-18 15:55:00
9:15 AM,44.6,39.2,81,30.48,10.0,SSE,6.9,-,N/A,,Overcast,160,2013-04-18 16:15:00
9:35 AM,44.6,39.2,81,30.47,10.0,SSE,8.1,-,N/A,,Overcast,160,2013-04-18 16:35:00
9:55 AM,46.4,39.2,76,30.47,10.0,SSE,9.2,-,N/A,,Overcast,150,2013-04-18 16:55:00
10:15 AM,46.4,39.2,76,30.47,10.0,SSE,9.2,-,N/A,,Overcast,160,2013-04-18 17:15:00
10:35 AM,46.4,37.4,71,30.47,10.0,SSE,10.4,-,N/A,,Overcast,160,2013-04-18 17:35:00
10:55 AM,46.4,39.2,76,30.47,10.0,SSE,9.2,-,N/A,,Overcast,150,2013-04-18 17:55:00
11:15 AM,46.4,39.2,76,30.47,10.0,South,11.5,-,N/A,,Overcast,170,2013-04-18 18:15:00
11:35 AM,48.2,39.2,71,30.47,10.0,SSE,9.2,-,N/A,,Overcast,160,2013-04-18 18:35:00
11:55 AM,48.2,39.2,71,30.46,10.0,SSE,10.4,-,N/A,,Overcast,160,2013-04-18 18:55:00
12:15 PM,48.2,39.2,71,30.46,10.0,SSE,10.4,-,N/A,,Overcast,150,2013-04-18 19:15:00
12:35 PM,48.2,39.2,71,30.45,10.0,SSE,9.2,-,N/A,,Overcast,160,2013-04-18 19:35:00
12:55 PM,48.2,39.2,71,30.45,10.0,South,8.1,-,N/A,,Overcast,170,2013-04-18 19:55:00
1:35 PM,48.2,39.2,71,30.44,10.0,South,10.4,-,N/A,,Overcast,170,2013-04-18 20:35:00
1:55 PM,48.2,39.2,71,30.43,10.0,SSE,11.5,17.3,N/A,,Overcast,160,2013-04-18 20:55:00
2:15 PM,48.2,41.0,76,30.42,10.0,SSE,9.2,-,N/A,,Overcast,150,2013-04-18 21:15:00
2:35 PM,48.2,39.2,71,30.42,10.0,SSE,9.2,-,N/A,,Overcast,160,2013-04-18 21:35:00
2:55 PM,48.2,41.0,76,30.41,10.0,SSE,9.2,-,N/A,,Overcast,150,2013-04-18 21:55:00
3:15 PM,48.2,41.0,76,30.41,10.0,SSE,8.1,-,N/A,,Overcast,150,2013-04-18 22:15:00
3:35 PM,48.2,42.8,82,30.40,10.0,SE,10.4,-,N/A,,Overcast,130,2013-04-18 22:35:00
3:55 PM,48.2,41.0,76,30.39,10.0,SE,8.1,-,N/A,,Overcast,130,2013-04-18 22:55:00
4:15 PM,48.2,42.8,82,30.38,10.0,SE,10.4,-,N/A,,Overcast,130,2013-04-18 23:15:00
4:35 PM,48.2,42.8,82,30.37,10.0,SE,8.1,-,N/A,,Overcast,130,2013-04-18 23:35:00
4:55 PM,48.2,42.8,82,30.36,10.0,SE,10.4,-,N/A,,Overcast,130,2013-04-18 23:55:00
5:15 PM,48.2,42.8,82,30.36,10.0,SE,10.4,-,N/A,,Overcast,130,2013-04-19 00:15:00
5:35 PM,48.2,42.8,82,30.36,10.0,SE,9.2,-,N/A,,Overcast,140,2013-04-19 00:35:00
5:55 PM,48.2,42.8,82,30.35,10.0,SE,8.1,-,N/A,,Overcast,130,2013-04-19 00:55:00
6:15 PM,48.2,42.8,82,30.34,10.0,SE,9.2,-,N/A,,Overcast,130,2013-04-19 01:15:00
6:35 PM,46.4,42.8,87,30.33,10.0,SE,11.5,-,N/A,,Overcast,140,2013-04-19 01:35:00
6:55 PM,48.2,42.8,82,30.32,10.0,SE,12.7,-,N/A,,Overcast,130,2013-04-19 01:55:00
7:15 PM,46.4,42.8,87,30.32,10.0,SE,11.5,16.1,N/A,,Overcast,130,2013-04-19 02:15:00
7:35 PM,46.4,42.8,87,30.31,10.0,SE,12.7,-,N/A,,Overcast,130,2013-04-19 02:35:00
7:55 PM,46.4,44.6,93,30.30,10.0,SE,9.2,-,N/A,,Overcast,140,2013-04-19 02:55:00
8:35 PM,48.2,44.6,87,30.30,10.0,SE,12.7,18.4,N/A,,Overcast,130,2013-04-19 03:35:00
8:55 PM,48.2,44.6,87,30.30,10.0,SE,13.8,-,N/A,,Overcast,130,2013-04-19 03:55:00
9:15 PM,48.2,44.6,87,30.30,10.0,SE,12.7,-,N/A,,Overcast,130,2013-04-19 04:15:00
9:35 PM,48.2,44.6,87,30.30,10.0,SE,11.5,-,N/A,,Overcast,130,2013-04-19 04:35:00
9:55 PM,48.2,44.6,87,30.29,10.0,ESE,12.7,-,N/A,,Overcast,120,2013-04-19 04:55:00
10:15 PM,48.2,44.6,87,30.28,10.0,SE,12.7,-,N/A,,Overcast,130,2013-04-19 05:15:00
10:35 PM,48.2,44.6,87,30.27,10.0,SE,13.8,18.4,N/A,,Overcast,130,2013-04-19 05:35:00
10:55 PM,48.2,44.6,87,30.26,10.0,SE,12.7,-,N/A,,Overcast,130,2013-04-19 05:55:00
11:15 PM,48.2,44.6,87,30.25,10.0,SE,13.8,19.6,N/A,,Overcast,130,2013-04-19 06:15:00
11:35 PM,48.2,44.6,87,30.24,10.0,SE,12.7,-,N/A,,Overcast,140,2013-04-19 06:35:00
11:55 PM,48.2,44.6,87,30.22,10.0,SE,13.8,-,N/A,,Overcast,130,2013-04-19 06:55:00